Location: Bouchavesnes-Bergen
(49.9859°N, 2.9203°E)
Time: 04:31:38
(UTC+00:00)

USA 238 DEB - Pass Details

Date: 09 March 2021
Orbit: 995 x 1217 km, 63.4° (Epoch: 01 April)

Event Time Altitude Azimuth Distance (km) Brightness Sun altitude
Rises 03:02:52 0° 316° (NW) 3,925 6.6 -30.3°
Reaches altitude 10° 03:05:29 10° 317° (NW) 2,996 5.9 -30.0°
Maximum altitude 03:12:42 82° 46° (NE) 1,178 3.8 -29.0°
Drops below altitude 10° 03:20:14 10° 134° (SE) 3,126 6.3 -27.9°
Sets 03:23:01 0° 136° (SE) 4,104 6.9 -27.5°
